TimeCST,TemperatureF,Dew PointF,Humidity,Sea Level PressureIn,VisibilityMPH,Wind Direction,Wind SpeedMPH,Gust SpeedMPH,PrecipitationIn,Events,Conditions,WindDirDegrees,DateUTC
12:53 AM,27.0,10.0,49,30.37,10.0,NE,10.4,-,N/A,,Overcast,40,2013-01-22 06:53:00
1:53 AM,27.0,8.1,45,30.38,10.0,NNE,9.2,-,N/A,,Mostly Cloudy,30,2013-01-22 07:53:00
2:53 AM,25.0,6.1,45,30.38,10.0,NNE,8.1,-,N/A,,Clear,30,2013-01-22 08:53:00
3:53 AM,24.1,6.1,46,30.39,10.0,NNE,9.2,-,N/A,,Clear,20,2013-01-22 09:53:00
4:53 AM,23.0,9.0,55,30.40,10.0,ENE,8.1,-,N/A,,Clear,70,2013-01-22 10:53:00
5:53 AM,21.9,7.0,53,30.43,10.0,ENE,6.9,-,N/A,,Clear,70,2013-01-22 11:53:00
6:53 AM,21.0,7.0,55,30.45,10.0,East,4.6,-,N/A,,Clear,80,2013-01-22 12:53:00
7:53 AM,21.9,6.1,51,30.46,10.0,ENE,4.6,-,N/A,,Clear,60,2013-01-22 13:53:00
8:53 AM,21.9,5.0,48,30.47,10.0,Variable,4.6,-,N/A,,Clear,0,2013-01-22 14:53:00
9:53 AM,24.1,5.0,44,30.49,10.0,East,5.8,-,N/A,,Clear,90,2013-01-22 15:53:00
10:53 AM,24.1,5.0,44,30.49,10.0,East,6.9,-,N/A,,Clear,80,2013-01-22 16:53:00
11:53 AM,26.1,3.9,39,30.48,10.0,East,3.5,-,N/A,,Clear,80,2013-01-22 17:53:00
12:53 PM,26.1,3.9,39,30.44,10.0,Calm,Calm,-,N/A,,Mostly Cloudy,0,2013-01-22 18:53:00
1:53 PM,26.1,5.0,41,30.43,10.0,East,3.5,-,N/A,,Overcast,80,2013-01-22 19:53:00
2:53 PM,27.0,7.0,43,30.43,10.0,SE,5.8,-,N/A,,Overcast,140,2013-01-22 20:53:00
3:53 PM,27.0,7.0,43,30.42,10.0,SSE,5.8,-,N/A,,Overcast,150,2013-01-22 21:53:00
4:53 PM,27.0,8.1,45,30.41,10.0,ESE,3.5,-,N/A,,Overcast,110,2013-01-22 22:53:00
5:53 PM,27.0,10.0,49,30.41,10.0,ESE,4.6,-,N/A,,Overcast,120,2013-01-22 23:53:00
6:53 PM,27.0,10.9,51,30.40,10.0,ESE,4.6,-,N/A,,Overcast,120,2013-01-23 00:53:00
7:53 PM,27.0,10.0,49,30.40,10.0,East,3.5,-,N/A,,Overcast,100,2013-01-23 01:53:00
8:53 PM,27.0,10.9,51,30.39,10.0,ESE,3.5,-,N/A,,Overcast,110,2013-01-23 02:53:00
9:53 PM,26.1,12.9,58,30.39,10.0,Calm,Calm,-,N/A,,Clear,0,2013-01-23 03:53:00
10:53 PM,25.0,15.1,66,30.40,10.0,Calm,Calm,-,N/A,,Clear,0,2013-01-23 04:53:00
11:53 PM,24.1,17.1,75,30.39,10.0,NE,3.5,-,N/A,,Clear,50,2013-01-23 05:53:00